Location: Leiter
(44.7178°N, 106.2687°W)
Time: 12:34:53
(UTC+00:00)

CUTE 1.7 + AOD 2 - Pass Details

Date: 04 July 2022
Orbit: 589 x 608 km, 97.7° (Epoch: 14 August)

Event Time Altitude Azimuth Distance (km) Brightness Sun altitude
Rises 10:41:56 0° 17° (NNE) 2,849 ? -6.9°
Reaches altitude 10° 10:44:09 10° 22° (NNE) 1,939 ? -6.6°
Maximum altitude 10:48:17 53° 100° (E) 732 ? -6.0°
Drops below altitude 10° 10:52:20 10° 178° (S) 1,914 ? -5.5°
Sets 10:54:32 0° 183° (S) 2,808 ? -5.2°
